[[{"header":{"parameterUnit":"m.s-1","parameterCategory":1,"la1":30.2991,"la2":30.254,"lo1":-89.0895,"lo2":-89.0444,"dy":0.0017,"dx":0.0017,"nx":28,"ny":28,"refTime":"2024-03-03T03:00:00:Z","depth":0,"parameterNumber":2,"parameterNumberName":"U-component_of_WINDS"},"data":[0,0,0,0,0,0,0,0,0,0,0,0,0,0,0,0,0,0,0,0,0,0,0,0,0,0,0,0,0,0,0,0,0,0,0,0,0,0,0,0,0,0,0,0,0,0,0,0,0,0,0,0,0,0,0,0,0,0,-4.9215,-4.9216,0,-4.9302,-4.9303,-4.9304,-4.9263,-4.9261,-4.9258,-4.9256,-4.9346,-4.935,-4.9354,0,0,0,0,0,0,0,0,0,0,0,0,0,-4.9012,-4.9016,-4.9215,-4.9216,-4.9217,-4.9302,-4.9303,-4.9304,-4.9263,-4.926,-4.9258,-4.9255,-4.9344,-4.9349,-4.9355,0,0,0,0,0,0,0,0,0,0,0,0,0,-4.91,-4.9018,-4.9214,-4.9206,-4.9207,-4.9302,-4.9303,-4.9305,-4.9264,-4.926,-4.9257,-4.9254,-4.9342,-4.9349,-4.9355,-4.9463,0,0,-4.9376,-4.9379,0,0,0,0,0,0,0,0,-4.9095,-4.9108,-4.9207,-4.9207,-4.9208,-4.9268,-4.9265,-4.9358,-4.9265,-4.9242,-4.9256,-4.9252,-4.9323,-4.9331,-4.9354,-4.9468,-4.9471,-4.9376,-4.938,-4.9383,-4.9385,0,0,0,0,0,0,0,-4.9089,-4.9104,-4.9249,-4.9208,-4.9209,-4.9199,-4.9208,-4.9282,-4.93,-4.9244,-4.9241,-4.9252,-4.9322,-4.9348,-4.9356,-4.9473,-4.9376,-4.9382,-4.9386,-4.9389,-4.968,-4.9684,0,0,0,0,0,0,-4.9083,-4.9099,-4.9246,-4.9252,-4.9142,-4.9205,-4.9215,-4.9252,-4.9299,-4.9303,-4.9255,-4.925,-4.9338,-4.9348,-4.9359,-4.9489,-4.9383,-4.939,-4.9393,-4.9677,-4.9681,-4.9685,0,0,0,0,0,0,-4.9079,-4.9097,-4.9243,-4.9175,-4.9192,-4.9212,-4.9254,-4.9256,-4.9281,-4.9307,-4.931,-4.9278,-4.9336,-4.935,-4.9438,-4.9491,-4.9393,-4.9399,-4.9672,-4.9678,-4.9683,-4.9749,0,0,0,0,0,0,-4.9073,-4.9096,-4.9136,-4.9176,-4.9196,-4.932,-4.9257,-4.926,-4.9293,-4.9287,-4.933,-4.9334,-4.9334,-4.9428,-4.9445,-4.9499,-4.9404,-4.9667,-4.9675,-4.9681,-4.9742,-4.9756,-4.9768,0,0,0,0,0,-4.9066,-4.9151,-4.9139,-4.9157,-4.9248,-4.9323,-4.9335,-4.9334,-4.9297,-4.9339,-4.9356,-4.9332,-4.9483,-4.9438,-4.9456,-4.9513,-4.9664,-4.9673,-4.9681,-4.9736,-4.9753,-4.9768,0,0,0,0,0,0,-4.9116,-4.9156,-4.9143,-4.9243,-4.928,-4.9316,-4.9368,-4.9352,-4.9401,-4.9393,-4.9391,-4.9401,-4.9492,-4.9512,-4.946,-4.962,-4.9568,-4.958,-4.9604,-4.962,-4.9633,-4.9626,-4.9409,0,0,0,0,0,-4.9139,-4.9197,-4.9229,-4.9314,-4.9334,-4.9348,-4.9381,-4.9377,-4.9416,-4.9431,-4.9455,-4.9493,-4.9549,-4.9586,-4.9639,-4.9745,-4.9754,-4.9794,-4.9807,-4.9817,-4.9827,-4.9885,-4.9903,-4.9713,-4.9713,-4.9713,0,0,-4.9186,-4.9215,-4.9252,-4.9325,-4.9353,-4.9414,-4.9361,-4.9427,-4.9472,-4.9441,-4.9526,-4.9545,-4.9588,-4.9686,-4.973,-4.9704,-4.9882,-4.9828,-4.9836,-4.984,-4.9896,-4.9914,-4.993,-4.9718,-4.9717,-4.9717,0,0,-4.9303,-4.9331,-4.9405,-4.9436,-4.948,-4.9489,-4.9507,-4.9547,-4.9558,-4.9644,-4.9622,-4.9676,-4.9773,-4.9804,-4.9833,-4.9965,-4.9945,-4.9982,-5.0049,-5.0106,-5.0121,-5.0134,-5.0181,-5.0198,-4.9993,-4.9993,-4.9993,0,-4.9356,-4.9446,-4.9445,-4.9513,-4.9546,-4.9523,-4.9598,-4.9628,-4.9687,-4.971,-4.9681,-4.9803,-4.983,-4.9935,-4.9968,-4.9992,-5.0013,-4.9976,-5.0119,-5.0132,-5.0145,-5.0189,-5.0207,-4.9997,-4.9997,-4.9996,-4.9996,0,-4.9509,-4.9572,-4.9627,-4.9685,-4.9725,-4.9796,-4.9807,-4.9847,-4.9841,-4.9854,-4.9942,-4.9974,-5.0033,-5.0059,-5.0053,-5.0164,-5.0146,-5.0119,-5.0066,-5.0167,-5.0209,-5.0226,-5.0003,-5.0002,-5.0,-4.9999,0,0,-4.9656,-4.9716,-4.9736,-4.9763,-4.9811,-4.986,-4.9931,-4.999,-5.0024,-5.0067,-5.0126,-5.021,-5.0185,-5.0218,-5.0216,-5.0267,-5.0369,-5.0233,-5.0234,-5.0256,-5.0493,-5.0512,-5.0532,-5.0357,-5.036,-5.0363,-5.0489,0,-4.9776,-4.99,-4.9903,-5.0017,-5.0075,-5.0055,-5.0117,-5.0154,-5.0169,-5.0221,-5.0237,-5.0296,-5.0259,-5.0279,-5.0327,-5.0346,-5.0416,-5.0337,-5.0412,-5.0414,-5.04,-5.0553,-5.0574,-5.0691,-5.0505,-5.0508,-5.051,0,-4.9931,-4.9979,-5.0099,-5.0141,-5.0165,-5.0221,-5.0276,-5.0326,-5.0368,-5.0375,-5.0413,-5.0405,-5.0478,-5.0425,-5.0526,-5.0472,-5.0503,-5.0517,-5.0522,-5.0527,-5.0467,-5.0562,-5.0728,-5.0745,-5.0535,-5.0533,-5.0532,0,-5.0026,-5.0121,-5.0205,-5.0229,-5.028,-5.0319,-5.0342,-5.0381,-5.0417,-5.0465,-5.0488,-5.0545,-5.0575,-5.062,-5.0627,-5.0588,-5.0728,-5.0676,-5.0736,-5.0736,-5.0765,-5.0762,-5.0937,-5.0788,-5.0787,-5.0787,-5.0787,0,-5.0158,-5.0231,-5.0248,-5.03,-5.0383,-5.0386,-5.0468,-5.0488,-5.0523,-5.0579,-5.0566,-5.0618,-5.0625,-5.068,-5.0687,-5.0769,-5.0783,-5.0791,-5.0792,-5.0791,-5.079,-5.081,-5.0802,-5.0792,-5.0791,-5.079,-5.0789,0,-5.0276,-5.029,-5.0381,-5.0422,-5.0435,-5.0494,-5.0529,-5.0579,-5.0593,-5.0664,-5.0681,-5.0703,-5.0767,-5.0779,-5.0854,-5.0859,-5.0957,-5.095,-5.0943,-5.0941,-5.1001,-5.0995,-5.1193,-5.1219,-5.1054,-5.1056,-5.1057,0,-5.0358,-5.0415,-5.0463,-5.0499,-5.0524,-5.0583,-5.062,-5.0627,-5.0666,-5.0719,-5.0763,-5.0825,-5.0875,-5.0978,-5.1001,-5.1059,-5.1053,-5.1118,-5.1061,-5.1059,-5.1052,-5.1048,-5.1054,-5.1128,-5.113,-5.1132,-5.1133,0,-5.0502,-5.0507,-5.0561,-5.0618,-5.0662,-5.0707,-5.075,-5.0781,-5.0793,-5.0838,-5.0903,-5.0942,-5.102,-5.1082,-5.1141,-5.1164,-5.1151,-5.1151,-5.1168,-5.1167,-5.116,-5.1164,-5.0971,-5.1146,-5.1145,-5.1144,-5.1143,-5.1142,-5.0604,-5.0654,-5.0696,-5.0756,-5.079,-5.0831,-5.0879,-5.0901,-5.0955,-5.1019,-5.102,-5.1092,-5.1134,-5.1211,-5.1239,-5.1295,-5.1275,-5.1299,-5.1305,-5.1311,-5.1316,-5.1153,-5.1306,-5.1306,-5.1306,-5.1305,-5.1305,0,-5.0747,-5.0773,-5.0829,-5.089,-5.0938,-5.0923,-5.097,-5.1011,-5.1074,-5.1115,-5.1165,-5.1241,-5.1302,-5.1331,-5.1392,-5.1431,-5.1427,-5.1447,-5.1443,-5.1449,-5.1331,-5.131,-5.1449,-5.1449,-5.1449,-5.1449,-5.1449,-5.1449,-5.0826,-5.0909,-5.092,-5.102,-5.1046,-5.1116,-5.1145,-5.1183,-5.1215,-5.1301,-5.1351,-5.137,-5.1407,-5.147,-5.1526,-5.1533,-5.1555,-5.1578,-5.1582,-5.1472,-5.1457,-5.1443,-5.1423,-5.1583,-5.1584,-5.1695,-5.1696,-5.1696]},{"header":{"parameterUnit":"m.s-1","parameterCategory":1,"la1":30.2991,"la2":30.254,"lo1":-89.0895,"lo2":-89.0444,"dy":0.0017,"dx":0.0017,"nx":28,"ny":28,"refTime":"2024-03-03T03:00:00:Z","depth":0,"parameterNumber":3,"parameterNumberName":"V-component_of_WINDS"},"data":[0,0,0,0,0,0,0,0,0,0,0,0,0,0,0,0,0,0,0,0,0,0,0,0,0,0,0,0,0,0,0,0,0,0,0,0,0,0,0,0,0,0,0,0,0,0,0,0,0,0,0,0,0,0,0,0,0,0,2.0089,2.009,0,2.0176,2.0177,2.0178,2.0235,2.0235,2.0236,2.0236,2.0322,2.0324,2.0326,0,0,0,0,0,0,0,0,0,0,0,0,0,1.9969,1.9971,2.0089,2.009,2.0091,2.0176,2.0177,2.0178,2.0235,2.0235,2.0236,2.0236,2.0321,2.0323,2.0326,0,0,0,0,0,0,0,0,0,0,0,0,0,2.0035,1.9971,2.0089,2.0129,2.0134,2.0176,2.0177,2.0179,2.0235,2.0235,2.0236,2.0236,2.032,2.0323,2.0326,2.0333,0,0,2.0335,2.0336,0,0,0,0,0,0,0,0,2.0031,2.0039,2.0122,2.0127,2.0132,2.0195,2.0167,2.023,2.0235,2.0196,2.0236,2.0237,2.0279,2.0285,2.03,2.0337,2.0341,2.0335,2.0337,2.0338,2.0339,0,0,0,0,0,0,0,2.0027,2.0036,2.0123,2.0123,2.0129,2.0143,2.0153,2.0179,2.0233,2.02,2.0204,2.0214,2.0282,2.0297,2.0303,2.0342,2.0335,2.0338,2.0339,2.0341,2.0392,2.0391,0,0,0,0,0,0,2.0016,2.0032,2.012,2.0126,2.0082,2.0145,2.0156,2.0174,2.0233,2.0243,2.0213,2.0216,2.0292,2.0299,2.0306,2.032,2.0338,2.0341,2.0343,2.0392,2.0392,2.0391,0,0,0,0,0,0,2.0013,2.0023,2.0117,2.008,2.0093,2.0146,2.0166,2.0176,2.0192,2.0244,2.0253,2.022,2.0293,2.0302,2.0327,2.0324,2.0342,2.0345,2.0392,2.0392,2.0391,2.0347,0,0,0,0,0,0,2.0009,2.0022,2.0025,2.008,2.0095,2.0137,2.0166,2.0177,2.0197,2.0202,2.0252,2.0261,2.0294,2.0322,2.033,2.0328,2.0347,2.0393,2.0392,2.0391,2.0349,2.0345,2.0342,0,0,0,0,0,2.0005,2.0008,2.0025,2.0036,2.01,2.0136,2.0145,2.0184,2.0196,2.0201,2.0234,2.0259,2.0323,2.0324,2.0333,2.0333,2.0393,2.0392,2.0392,2.0351,2.0346,2.0342,0,0,0,0,0,0,1.995,2.0016,2.0036,2.0056,2.0091,2.0146,2.0152,2.0177,2.0207,2.021,2.0257,2.0267,2.0288,2.0313,2.0313,2.0344,2.0361,2.0362,2.0327,2.0323,2.0319,2.0313,2.035,0,0,0,0,0,1.994,1.9965,2.0021,2.0034,2.005,2.0098,2.0115,2.0143,2.0179,2.0194,2.0229,2.0263,2.0291,2.0308,2.0336,2.0353,2.0366,2.0357,2.0353,2.035,2.0351,2.0364,2.0361,2.0388,2.0388,2.0388,0,0,1.992,1.996,1.9972,2.0024,2.0054,2.0078,2.011,2.0133,2.0152,2.0197,2.0224,2.0251,2.0292,2.0313,2.0324,2.0334,2.0346,2.0349,2.0346,2.0348,2.0362,2.036,2.0357,2.0388,2.0388,2.0388,0,0,1.9897,1.9929,1.9945,1.9974,2.002,2.0052,2.0056,2.0108,2.0129,2.0156,2.0191,2.0214,2.026,2.0289,2.0309,2.03,2.0325,2.0307,2.0288,2.03,2.0298,2.0297,2.0295,2.0294,2.0307,2.0307,2.0307,0,1.9867,1.9906,1.9949,1.9972,1.9994,2.0038,2.0055,2.0081,2.0132,2.0147,2.0158,2.0219,2.0249,2.028,2.0278,2.0292,2.0298,2.0302,2.0295,2.0294,2.0293,2.0292,2.0291,2.0305,2.0305,2.0306,2.0306,0,1.9867,1.9893,1.99,1.9952,1.9975,1.9994,2.0041,2.0059,2.0085,2.0116,2.0144,2.0183,2.0221,2.023,2.0254,2.0264,2.0269,2.0287,2.0305,2.0288,2.0288,2.0287,2.0302,2.0303,2.0303,2.0304,0,0,1.981,1.9888,1.989,1.9915,1.9969,1.999,2.0012,2.0051,2.0067,2.0101,2.0121,2.0161,2.0179,2.0202,2.023,2.024,2.0233,2.0257,2.0259,2.0253,2.0248,2.0235,2.0234,2.025,2.025,2.025,2.0245,0,1.9797,1.984,1.9881,1.9909,1.9935,1.9978,1.9997,2.0032,2.0062,2.0088,2.0121,2.0149,2.017,2.0185,2.0197,2.0231,2.0233,2.0232,2.0269,2.027,2.0259,2.0234,2.022,2.0214,2.0245,2.0245,2.0245,0,1.9786,1.9822,1.9853,1.9908,1.992,1.9937,1.9977,2.0001,2.0043,2.0064,2.0091,2.0122,2.0147,2.0163,2.0199,2.0197,2.0215,2.0234,2.0235,2.0241,2.0257,2.024,2.0213,2.0212,2.0245,2.0245,2.0245,0,1.9745,1.98,1.9826,1.9846,1.991,1.9921,1.9947,1.999,2.0011,2.0046,2.0061,2.0098,2.0118,2.0145,2.0185,2.0192,2.0218,2.0236,2.0236,2.0236,2.024,2.024,2.0217,2.0249,2.0249,2.0249,2.0249,0,1.9726,1.9744,1.9809,1.9825,1.9847,1.9894,1.9914,1.9944,1.9982,2.0005,2.0043,2.0064,2.0115,2.0141,2.0172,2.0199,2.0207,2.0225,2.0233,2.0223,2.022,2.0235,2.0237,2.0249,2.0249,2.0249,2.0249,0,1.9683,1.9727,1.976,1.9818,1.9833,1.9847,1.9897,1.9915,1.9947,1.9976,1.9986,2.0037,2.0071,2.0113,2.016,2.0181,2.0204,2.0216,2.0191,2.0196,2.0195,2.0195,2.0181,2.0183,2.0213,2.0212,2.0212,0,1.9669,1.9684,1.9745,1.9765,1.9791,1.9821,1.9844,1.989,1.9913,1.9963,1.9975,2.0012,2.0044,2.0096,2.0137,2.0173,2.0187,2.018,2.0193,2.0182,2.0189,2.0188,2.0191,2.0177,2.0176,2.0176,2.0175,0,1.964,1.9661,1.9694,1.9735,1.9762,1.9796,1.9832,1.9845,1.9899,1.9922,1.9959,1.9984,2.0033,2.007,2.0112,2.0139,2.0166,2.0171,2.0174,2.0163,2.0149,2.0158,2.0184,2.0171,2.0172,2.0172,2.0172,2.0172,1.9612,1.9629,1.9675,1.9711,1.9743,1.9776,1.9796,1.9833,1.9864,1.9909,1.9934,1.997,2.0013,2.0073,2.0099,2.0128,2.0137,2.014,2.0141,2.0142,2.0139,2.0143,2.0135,2.0135,2.0135,2.0135,2.0136,0,1.9586,1.9619,1.9651,1.9701,1.973,1.9755,1.9796,1.9818,1.9849,1.9888,1.992,1.9962,1.9998,2.0043,2.0082,2.0097,2.011,2.0106,2.0106,2.0112,2.0127,2.0122,2.0094,2.0094,2.0094,2.0094,2.0094,2.0094,1.9576,1.9607,1.9634,1.9681,1.9713,1.975,1.9772,1.9803,1.9834,1.988,1.9912,1.9941,1.9982,2.0025,2.006,2.0072,2.0085,2.0077,2.0093,2.0107,2.011,2.0114,2.0109,2.0079,2.0079,2.0076,2.0076,2.0076]}]]